Dillon, MT

10:58 AM MDT on May 26, 2017 (GMT -0600)
Dillon

Weather History for KDLN - June, 2013

Change the Weather History Date:

Wednesday, June 26, 2013

  Actual Average Record
Temperature  
Mean Temperature 66 °F 61 °F  
Max Temperature 78 °F 76 °F 95 °F (2015)
Min Temperature 53 °F 46 °F 32 °F (1976)
Degree Days  
Heating Degree Days 0    
Month to date heating degree days 188  
Since 1 June heating degree days 188  
Since 1 July heating degree days 7673  
Cooling Degree Days 1    
Month to date cooling degree days 2  
Year to date cooling degree days 5  
Since 1 June cooling degree days 2  
Growing Degree Days 14 (Base 50)    
Moisture  
Dew Point 47 °F    
Average Humidity 58    
Maximum Humidity 83    
Minimum Humidity 33    
Precipitation  
Precipitation T in 0.05 in 1.25 in (1944)
Month to date precipitation 1.19 1.80  
Year to date precipitation 4.12 5.87  
Snow  
Snow 0.00 in - - ()
Snow Depth 0.00 in    
Sea Level Pressure  
Sea Level Pressure 29.97 in    
Wind  
Wind Speed 6 mph (SW)    
Max Wind Speed 18 mph    
Max Gust Speed 22 mph    
Visibility 10 miles    
Events      
T = Trace of Precipitation, MM = Missing Value Source: NWS Daily Summary

Daily Weather History Graph

Daily Weather History Graph

Search for Another Location

Airport or City:

Trip Planner

Search our weather history database for the weather conditions in past years. The results will help you decide how hot, cold, wet, or windy it might be!

Date:

Astronomy

Jun. 26, 2013 Rise Set
Actual Time 5:44 AM MDT 9:22 PM MDT
Civil Twilight 5:06 AM MDT 9:59 PM MDT
Nautical Twilight 4:16 AM MDT 10:49 PM MDT
Astronomical Twilight 3:09 AM MDT 11:56 PM MDT
Moon 11:33 PM MDT 9:51 AM MDT
Length of Visible Light 16h 53m
Length of Day
15h 38m
Waning Gibbous, 85% of the Moon is Illuminated
Jun 26
Waning Gibbous
Jun 29
Last Quarter
Jul 8
New
Jul 15
First Quarter
Jul 22
Full

Hourly Weather History & Observations

Time (MDT) Temp. Dew Point Humidity Pressure Visibility Wind Dir Wind Speed Gust Speed Precip Events Conditions
12:53 AM 55.9 °F 48.9 °F 77% 29.91 in 10.0 mi SSW 9.2 mph - 0.00 in   Overcast
1:53 AM 55.0 °F 48.9 °F 80% 29.90 in 10.0 mi SSE 3.5 mph - 0.00 in   Overcast
2:53 AM 54.0 °F 48.0 °F 80% 29.89 in 10.0 mi SW 4.6 mph - N/A   Overcast
3:53 AM 54.0 °F 48.0 °F 80% 29.91 in 10.0 mi SW 6.9 mph - N/A   Mostly Cloudy
4:53 AM 54.0 °F 48.0 °F 80% 29.93 in 10.0 mi SW 6.9 mph - N/A   Overcast
5:53 AM 54.0 °F 48.0 °F 80% 29.95 in 10.0 mi SSW 6.9 mph - N/A   Overcast
6:53 AM 55.0 °F 48.9 °F 80% 29.98 in 10.0 mi SSW 8.1 mph - N/A   Overcast
7:53 AM 57.0 °F 48.0 °F 72% 29.99 in 10.0 mi SSW 6.9 mph - N/A   Mostly Cloudy
8:53 AM 59.0 °F 48.9 °F 69% 29.99 in 10.0 mi SW 5.8 mph - N/A   Overcast
9:53 AM 61.0 °F 48.0 °F 62% 30.01 in 10.0 mi West 6.9 mph - 0.00 in   Overcast
10:53 AM 64.0 °F 46.0 °F 52% 30.00 in 10.0 mi Calm Calm - N/A   Mostly Cloudy
11:53 AM 64.9 °F 46.0 °F 50% 30.00 in 10.0 mi SW 3.5 mph - N/A   Partly Cloudy
12:53 PM 68.0 °F 48.9 °F 50% 29.99 in 10.0 mi WSW 4.6 mph - N/A   Mostly Cloudy
1:53 PM 70.0 °F 48.9 °F 47% 29.97 in 10.0 mi SW 6.9 mph - N/A   Mostly Cloudy
2:53 PM 72.0 °F 48.0 °F 43% 29.96 in 10.0 mi West 6.9 mph - N/A   Clear
3:53 PM 75.0 °F 46.0 °F 36% 29.94 in 10.0 mi Calm Calm - N/A   Mostly Cloudy
4:53 PM 75.0 °F 45.0 °F 34% 29.93 in 10.0 mi NNE 8.1 mph - N/A   Overcast
5:53 PM 75.9 °F 46.9 °F 36% 29.94 in 10.0 mi West 9.2 mph - N/A   Mostly Cloudy
6:53 PM 73.0 °F 46.9 °F 39% 29.95 in 10.0 mi West 13.8 mph 21.9 mph N/A   Mostly Cloudy
7:53 PM 71.1 °F 46.0 °F 41% 29.98 in 10.0 mi WSW 4.6 mph - N/A   Overcast
8:53 PM 68.0 °F 46.0 °F 45% 30.00 in 10.0 mi West 10.4 mph - N/A   Overcast
9:53 PM 66.0 °F 45.0 °F 47% 30.03 in 10.0 mi SW 4.6 mph - N/A   Mostly Cloudy
10:53 PM 61.0 °F 46.9 °F 60% 30.05 in 10.0 mi SW 6.9 mph - N/A   Mostly Cloudy
11:53 PM 57.9 °F 46.9 °F 67% 30.06 in 10.0 mi SE 8.1 mph - N/A   Overcast